EW4987 Weather Reports


Display with metric or nautical units.
time (UTC)temp
F
wind
direction
speed
MPH
gust
MPH
rain 1hr
in
rain 24hr
in
rain mn
in
humidity
%
barometer
mb
20260903084558 48 263 0.0 0.0 0.00 0.01 0.00 55 1004.4
20260903083059 49 263 0.0 0.0 0.00 0.01 0.00 55 1004.4
20260903081555 50 263 0.0 0.0 0.00 0.01 0.00 55 1004.4
20260903080050 51 263 0.0 0.0 0.00 0.01 0.00 55 1004.3
20260903074547 52 263 0.0 0.0 0.00 0.01 0.00 56 1004.0
20260903073043 54 263 0.0 0.0 0.00 0.01 0.00 56 1003.8
20260903071554 54 263 0.0 0.0 0.00 0.01 0.00 56 1003.7
20260903070056 54 264 0.0 0.0 0.00 0.01 0.00 56 1003.7
20260903064537 55 264 0.0 0.0 0.00 0.01 0.00 56 1003.7
20260903063036 55 264 0.0 0.0 0.00 0.01 0.00 54 1003.5
20260903061531 56 264 0.0 0.0 0.00 0.01 0.00 52 1003.4
20260903060029 57 264 0.0 0.0 0.00 0.01 0.00 49 1003.1
20260903054535 57 264 0.0 0.0 0.00 0.01 0.01 48 1003.1
20260903053019 57 263 0.0 0.0 0.00 0.01 0.01 48 1003.0
20260903051514 57 263 0.0 0.0 0.00 0.01 0.01 46 1003.0
20260903050010 56 209 0.0 0.0 0.00 0.01 0.01 47 1002.9
20260903044505 57 209 0.0 0.0 0.00 0.01 0.01 48 1002.8
20260903043003 59 209 0.0 0.0 0.00 0.01 0.01 45 1002.8
20260903041608 62 208 0.0 0.0 0.00 0.01 0.01 34 1002.7
20260903040059 63 208 0.0 0.0 0.00 0.01 0.01 34 1002.6
20260903034547 63 209 0.0 0.0 0.00 0.01 0.01 30 1002.5
20260903033043 63 209 0.0 0.0 0.00 0.01 0.01 30 1002.3
20260903031540 63 211 0.0 0.0 0.00 0.01 0.01 30 1002.2
20260903030035 64 211 0.0 0.0 0.00 0.01 0.01 30 1002.1
20260903024530 65 211 0.0 0.0 0.00 0.01 0.01 29 1002.1
20260903023035 65 211 0.0 0.0 0.00 0.01 0.01 31 1002.0
20260903021521 66 211 0.0 0.0 0.00 0.01 0.01 31 1002.0
20260903020017 66 219 0.0 0.0 0.00 0.01 0.01 30 1002.0
20260903014516 67 219 0.0 0.0 0.00 0.01 0.01 32 1002.1
20260903013007 70 220 0.0 0.0 0.00 0.01 0.01 27 1002.2
20260903011504 71 220 0.0 0.0 0.00 0.01 0.01 27 1002.2
20260903010100 71 220 0.0 0.0 0.00 0.01 0.01 25 1002.4
20260903004559 71 220 0.0 0.0 0.00 0.01 0.01 25 1002.5
20260903003106 72 213 0.0 0.0 0.00 0.01 0.01 22 1002.5
20260903001546 73 190 0.0 0.0 0.00 0.01 0.01 24 1002.4
20260903000049 75 360 0.0 0.0 0.00 0.01 0.01 22 1002.4
20260902234536 75 219 0.0 0.0 0.00 0.01 0.01 22 1002.4
20260902233036 76 360 0.0 0.0 0.00 0.01 0.01 20 1002.3
20260902231527 75 209 0.0 0.0 0.00 0.01 0.01 26 1002.5
20260902230023 75 167 0.0 0.0 0.00 0.01 0.01 23 1002.4
20260902224519 76 207 0.0 0.0 0.00 0.01 0.01 23 1002.4
20260902223015 76 223 0.0 0.0 0.00 0.01 0.01 24 1002.6
20260902221510 75 200 0.0 0.0 0.00 0.01 0.01 26 1002.6
20260902220008 76 196 0.0 0.0 0.00 0.01 0.01 23 1002.8
20260902214622 76 212 0.0 0.0 0.00 0.01 0.01 20 1002.8
20260902213056 76 196 0.0 0.0 0.00 0.01 0.01 21 1002.9
20260902211554 76 211 0.0 0.0 0.00 0.01 0.01 25 1002.8
20260902210052 76 153 0.0 0.0 0.00 0.01 0.01 27 1002.9
20260902204543 76 170 0.0 0.0 0.00 0.01 0.01 28 1003.2
20260902203039 76 177 0.0 0.0 0.00 0.01 0.01 28 1003.4
20260902201539 76 360 0.0 0.0 0.00 0.01 0.01 27 1003.3
20260902200030 76 153 0.0 0.0 0.00 0.01 0.01 27 1003.5
20260902194535 75 202 0.0 0.0 0.00 0.01 0.01 27 1003.7
20260902193021 74 237 0.0 0.0 0.00 0.01 0.01 29 1004.0
20260902191517 74 200 0.0 0.0 0.00 0.01 0.01 32 1004.2
20260902190012 74 207 0.0 0.0 0.00 0.01 0.01 33 1004.3
20260902184507 73 143 0.0 0.0 0.00 0.01 0.01 39 1004.5
20260902183002 73 159 0.0 0.0 0.00 0.01 0.01 39 1004.7
20260902181602 73 182 0.0 0.0 0.00 0.01 0.01 40 1004.9
20260902180055 72 162 0.0 0.0 0.00 0.01 0.01 38 1005.1
20260902174553 71 222 0.0 0.0 0.00 0.01 0.01 38 1005.3
20260902173044 71 159 0.0 0.0 0.00 0.01 0.01 41 1005.4
20260902171542 71 195 0.0 0.0 0.00 0.01 0.01 41 1005.5
20260902170038 69 178 0.0 0.0 0.00 0.01 0.01 40 1005.5
20260902164540 70 175 0.0 0.0 0.00 0.01 0.01 40 1005.4
20260902163032 69 360 0.0 0.0 0.00 0.01 0.01 40 1005.6
20260902161527 69 161 0.0 0.0 0.00 0.01 0.01 43 1005.5
20260902160017 69 180 0.0 0.0 0.00 0.01 0.01 44 1006.0
20260902154519 68 176 0.0 12.0 0.00 0.01 0.01 43 1006.1
20260902153011 66 167 0.0 0.0 0.00 0.01 0.01 38 1006.4
20260902151504 65 168 0.0 0.0 0.00 0.01 0.01 14 1006.7
20260902150100 64 168 0.0 0.0 0.00 0.01 0.01 13 1006.9
20260902144600 60 156 0.0 0.0 0.00 0.01 0.01 1 1006.8
20260902143051 56 141 0.0 0.0 0.00 0.01 0.01 1 1007.0
20260902141546 54 141 0.0 0.0 0.00 0.01 0.01 1 1007.1
20260902140043 53 141 0.0 0.0 0.00 0.01 0.01 1 1006.9
20260902134538 52 141 0.0 0.0 0.00 0.01 0.01 1 1006.8
20260902133050 52 141 0.0 0.0 0.01 0.01 0.01 1 1006.6
20260902131529 54 141 0.0 0.0 0.01 0.01 0.01 1 1006.5
20260902130028 55 141 0.0 0.0 0.01 0.01 0.01 1 1006.5
20260902124520 53 141 0.0 0.0 0.01 0.01 0.01 1 1006.3
20260902123016 52 141 0.0 0.0 0.00 0.00 0.00 1 1006.2
20260902121512 53 141 0.0 0.0 0.00 0.00 0.00 1 1005.7
20260902120007 55 141 0.0 0.0 0.00 0.00 0.00 1 1005.8
20260902114502 55 141 0.0 0.0 0.00 0.00 0.00 10 1005.6
20260902113105 56 141 0.0 0.0 0.00 0.00 0.00 45 1005.6
20260902111557 57 141 0.0 0.0 0.00 0.00 0.00 50 1005.4
20260902110055 58 141 0.0 0.0 0.00 0.00 0.00 52 1005.4
20260902104603 58 141 0.0 0.0 0.00 0.00 0.00 53 1005.5
20260902103058 58 165 0.0 0.0 0.00 0.00 0.00 53 1005.4
20260902101550 59 166 0.0 0.0 0.00 0.00 0.00 55 1005.3
20260902100042 61 167 0.0 0.0 0.00 0.00 0.00 54 1005.4
20260902094538 62 360 0.0 0.0 0.00 0.00 0.00 53 1005.4
20260902093042 63 360 0.0 0.0 0.00 0.00 0.00 52 1005.5
20260902091540 63 197 0.0 0.0 0.00 0.00 0.00 52 1005.6